STARLINK-32785, 62531

Orbit data source: Space-Track

STARLINK-32785, 62531 is a payload satellite owned by SpaceX/Seattle (US) in LEO that was launched on Wed, 08 Jan 2025 UTC via an FALCON 9 launch vehicle from the Air Force Eastern Test Range (AFETR). Payload-class satellites include a variety of spacecraft equipped with specific instruments for various scientific and technological missions. These include communications satellites like Starlink; space stations such as the ISS; scientific satellites like the Hubble; Earth observation satellites from companies like Planet Labs, Umbra, and HawkEye 360; GPS; miniature CubeSats for education and research; and military/defense satellites.

Loading next visibility...
Identifier
62531, 2025-004W
Orbit
LEO
Country
Flag of USUS
Related business
Manufacturer
SpaceX/Seattle
Mission
Operational Commercial Communications
Bus & Motor
STARLINK V2M, Unknown motor
Mass
730 kg wet, ~700 kg dry
Launch date (UTC)
2025-01-08 (9 months ago)
Launch vehicle
FALCON 9
Launch site
Air Force Eastern Test Range (AFETR)
Object type
Payload
Rocket body
Debris
Shape & HBR
Box + 2 Pan, 17.7 m
Radar Cross Section
33.884 m², Large (>1 m²)

Expand to show TLE details & history
Last TLE update: 16 hours ago

TLE from 16 hours ago
0 STARLINK-32785
1 62531U 25004W   25292.30777631  .00046072  00000-0  16720-2 0  9999
2 62531  42.9997 298.5378 0001069 270.9878  89.0851 15.27606300 44838
Epoch: 2025-10-19T07:23Z
TLE epoch observation values (Epoch: 2025-10-19T07:23:11.873Z)
Latitude
-0.00002°
Longitude
159.712°
Altitude
482.734 km
Speed
7.626 km/s
True Right ascension
19h 54m 09s
True Declination
0° 00' 00"
Sunlit
Object was in daylight at epoch
Visualization orbit readout
Latitude
Unknown
Longitude
Unknown
Altitude
Unknown
Speed
Unknown
Apparent Right ascension
Unknown
Apparent Declination
Unknown
Sunlit
N/A
Visualization observer readout
Local Sidereal Time
18:44:22
Azimuth
Unknown
Elevation
Unknown
Doppler factor
Unknown
Orbital elements
Apogee altitude
485.649 km
Perigee altitude
484.182 km
Semi-major axis
6,863.053 km
Eccentricity
0.00011
Inclination
42.9997°
RAAN
298.5378°
Arg. of periapsis
270.9878°
True anomaly
89.09735°
Mean anomaly
89.0851°
Eccentric anomaly
89.09122°
Mean motion
3.8174 °/min
Orbital period
94.31 mins
BSTAR
0.001672
Loading maneuver chart data...
Computing Atmospheric mass density...
Loading historical data...
Loading historical data...
Loading historical data...
Loading historical data...
Loading historical data...
Loading historical data...
Loading historical data...

Documentation

Showing up to 5 results
|